AFL3500 UUEE-URSS

Flight info

Callsign AFL3500
Flight time 2h 4m
Altitude 37000
Route EMGAS3H EMGAS T828 EKTUT N72 UMSIS N166 ADNET W79 BINOL BINOL1K
Aircraft A321/M-SDE3FGHIRWY/LB1

Departure

Time 2026-04-30 19:19
Airport Sheremetyevo International Airport (UUEE)

Arrival

Time 2026-04-30 21:23
Airport Sochi International Airport (URSS)
Time Latitude Longitude Altitude Speed Heading
2026-04-30 18:23 55.97709 37.41191 639 ft 0 kts 346°
2026-04-30 19:07 55.97673 37.41207 640 ft 3 kts 346°
2026-04-30 19:07 55.97656 37.41215 640 ft 3 kts 345°
2026-04-30 19:08 55.97632 37.41227 644 ft 2 kts 75°
2026-04-30 19:08 55.97622 37.41158 642 ft 3 kts 75°
2026-04-30 19:08 55.97617 37.41123 646 ft 3 kts 75°
2026-04-30 19:09 55.97606 37.41053 640 ft 3 kts 75°
2026-04-30 19:09 55.97603 37.41033 642 ft 0 kts 75°
2026-04-30 19:13 55.97613 37.41103 641 ft 10 kts 75°
2026-04-30 19:13 55.97630 37.41219 639 ft 9 kts 75°
2026-04-30 19:14 55.97646 37.41323 643 ft 8 kts 75°
2026-04-30 19:14 55.97659 37.41413 644 ft 7 kts 75°
2026-04-30 19:14 55.97671 37.41493 639 ft 7 kts 75°
2026-04-30 19:14 55.97685 37.41592 642 ft 9 kts 75°
2026-04-30 19:15 55.97704 37.41714 639 ft 11 kts 75°
2026-04-30 19:15 55.97752 37.42033 642 ft 15 kts 75°
2026-04-30 19:15 55.97781 37.42229 640 ft 17 kts 75°
2026-04-30 19:16 55.97798 37.42319 641 ft 8 kts 57°
2026-04-30 19:16 55.97838 37.42400 643 ft 10 kts 60°
2026-04-30 19:16 55.97877 37.42678 641 ft 13 kts 98°
2026-04-30 19:17 55.97797 37.42764 642 ft 15 kts 165°
2026-04-30 19:17 55.97618 37.42833 639 ft 11 kts 209°
2026-04-30 19:17 55.97587 37.42717 647 ft 4 kts 255°
2026-04-30 19:18 55.97587 37.42716 647 ft 0 kts 255°
2026-04-30 19:18 55.97552 37.42477 641 ft 55 kts 255°
2026-04-30 19:18 55.97392 37.41408 642 ft 120 kts 255°
2026-04-30 19:19 55.97137 37.39667 671 ft 165 kts 256°
2026-04-30 19:19 55.96837 37.37654 1280 ft 168 kts 255°
2026-04-30 19:19 55.96203 37.33697 2499 ft 164 kts 255°
2026-04-30 19:20 55.95890 37.31739 2999 ft 164 kts 255°
2026-04-30 19:20 55.95579 37.29781 3475 ft 165 kts 255°
2026-04-30 19:20 55.94948 37.25813 4380 ft 167 kts 256°
2026-04-30 19:21 55.94630 37.23809 4829 ft 168 kts 256°
2026-04-30 19:21 55.93992 37.19758 5608 ft 177 kts 256°
2026-04-30 19:22 55.93268 37.15149 5968 ft 206 kts 256°
2026-04-30 19:22 55.91895 37.06826 6526 ft 262 kts 255°
2026-04-30 19:23 55.90303 36.97189 8491 ft 275 kts 255°
2026-04-30 19:24 55.89209 36.90577 9925 ft 281 kts 255°
2026-04-30 19:24 55.88643 36.87167 10327 ft 294 kts 255°
2026-04-30 19:24 55.87400 36.79695 10648 ft 335 kts 255°
2026-04-30 19:25 55.83258 36.69275 11797 ft 371 kts 205°
2026-04-30 19:26 55.78193 36.68449 12940 ft 379 kts 163°
2026-04-30 19:26 55.73650 36.73141 14153 ft 382 kts 142°
2026-04-30 19:26 55.71508 36.75965 14675 ft 385 kts 143°
2026-04-30 19:27 55.66750 36.80554 15230 ft 391 kts 152°
2026-04-30 19:27 55.61831 36.84872 16122 ft 398 kts 152°
2026-04-30 19:28 55.59336 36.87056 16613 ft 401 kts 152°
2026-04-30 19:28 55.54323 36.91462 17563 ft 408 kts 151°
2026-04-30 19:29 55.49189 36.95967 18524 ft 415 kts 151°
2026-04-30 19:29 55.46591 36.98231 18979 ft 417 kts 152°
2026-04-30 19:30 55.38712 37.05096 20190 ft 426 kts 151°
2026-04-30 19:30 55.33357 37.09741 20963 ft 432 kts 151°
2026-04-30 19:31 55.27924 37.14451 21737 ft 438 kts 150°
2026-04-30 19:31 55.25178 37.16824 22118 ft 442 kts 150°
2026-04-30 19:31 55.19617 37.21619 22902 ft 447 kts 151°
2026-04-30 19:32 55.16818 37.24026 23290 ft 450 kts 150°
2026-04-30 19:32 55.14036 37.26413 23640 ft 453 kts 150°
2026-04-30 19:32 55.11195 37.28847 23950 ft 456 kts 150°
2026-04-30 19:32 55.08334 37.31293 24251 ft 458 kts 150°
2026-04-30 19:33 55.05460 37.33742 24547 ft 461 kts 150°
2026-04-30 19:33 55.02577 37.36195 24845 ft 463 kts 150°
2026-04-30 19:33 54.99667 37.38675 25140 ft 465 kts 150°
2026-04-30 19:33 54.96750 37.41160 25431 ft 467 kts 151°
2026-04-30 19:34 54.93823 37.43649 25709 ft 469 kts 151°
2026-04-30 19:34 54.90883 37.46146 26128 ft 468 kts 152°
2026-04-30 19:34 54.85053 37.51068 26745 ft 470 kts 152°
2026-04-30 19:35 54.82369 37.53330 26996 ft 472 kts 152°
2026-04-30 19:35 54.79401 37.55828 27251 ft 475 kts 152°
2026-04-30 19:35 54.76421 37.58333 27506 ft 477 kts 152°
2026-04-30 19:35 54.73428 37.60842 27777 ft 478 kts 152°
2026-04-30 19:36 54.70428 37.63353 28072 ft 479 kts 152°
2026-04-30 19:36 54.67412 37.65877 28404 ft 480 kts 152°
2026-04-30 19:36 54.61441 37.70857 29201 ft 477 kts 153°
2026-04-30 19:37 54.58458 37.73341 29541 ft 477 kts 153°
2026-04-30 19:37 54.55472 37.75831 29865 ft 477 kts 153°
2026-04-30 19:37 54.52485 37.78314 30169 ft 477 kts 153°
2026-04-30 19:37 54.50463 37.79986 30354 ft 477 kts 153°
2026-04-30 19:38 54.46499 37.83259 30677 ft 477 kts 153°
2026-04-30 19:38 54.43522 37.85792 30933 ft 477 kts 151°
2026-04-30 19:38 54.40592 37.88456 31187 ft 476 kts 150°
2026-04-30 19:38 54.37695 37.91214 31459 ft 476 kts 149°
2026-04-30 19:39 54.35750 37.93104 31662 ft 474 kts 149°
2026-04-30 19:39 54.32920 37.95854 31936 ft 474 kts 149°
2026-04-30 19:39 54.30046 37.98612 32194 ft 473 kts 150°
2026-04-30 19:39 54.27158 38.01342 32424 ft 473 kts 150°
2026-04-30 19:40 54.24268 38.04035 32632 ft 474 kts 150°
2026-04-30 19:40 54.21355 38.06725 32853 ft 474 kts 151°
2026-04-30 19:40 54.18447 38.09394 33086 ft 474 kts 151°
2026-04-30 19:40 54.15535 38.12064 33318 ft 474 kts 151°
2026-04-30 19:41 54.12634 38.14736 33553 ft 474 kts 151°
2026-04-30 19:41 54.09733 38.17410 33806 ft 473 kts 151°
2026-04-30 19:41 54.06844 38.20070 34054 ft 472 kts 152°
2026-04-30 19:41 54.03951 38.22733 34263 ft 472 kts 152°
2026-04-30 19:42 54.01064 38.25389 34441 ft 472 kts 152°
2026-04-30 19:42 53.98173 38.28045 34617 ft 472 kts 151°
2026-04-30 19:42 53.95284 38.30695 34787 ft 472 kts 152°
2026-04-30 19:42 53.92396 38.33334 34954 ft 472 kts 152°
2026-04-30 19:43 53.89542 38.35934 35116 ft 472 kts 152°
2026-04-30 19:43 53.86650 38.38566 35280 ft 471 kts 152°
2026-04-30 19:43 53.83761 38.41195 35455 ft 471 kts 152°
2026-04-30 19:44 53.77992 38.46434 35768 ft 470 kts 152°
2026-04-30 19:44 53.75047 38.48831 35896 ft 470 kts 160°
2026-04-30 19:44 53.71927 38.50455 36030 ft 469 kts 169°
2026-04-30 19:44 53.68725 38.51518 36156 ft 469 kts 170°
2026-04-30 19:45 53.65513 38.52563 36287 ft 469 kts 169°
2026-04-30 19:45 53.62305 38.53609 36420 ft 469 kts 169°
2026-04-30 19:45 53.59133 38.54650 36534 ft 469 kts 169°
2026-04-30 19:45 53.55930 38.55710 36668 ft 469 kts 169°
2026-04-30 19:46 53.52725 38.56778 36790 ft 469 kts 169°
2026-04-30 19:46 53.49528 38.57842 36910 ft 468 kts 169°
2026-04-30 19:46 53.46329 38.58897 37034 ft 468 kts 169°
2026-04-30 19:46 53.43142 38.59938 37185 ft 466 kts 169°
2026-04-30 19:47 53.39953 38.60974 37223 ft 467 kts 169°
2026-04-30 19:47 53.33535 38.63052 37228 ft 470 kts 169°
2026-04-30 19:48 53.27090 38.65138 37234 ft 471 kts 169°
2026-04-30 19:48 53.20706 38.67209 37231 ft 470 kts 170°
2026-04-30 19:49 53.14276 38.69281 37236 ft 470 kts 170°
2026-04-30 19:49 53.04641 38.72374 37230 ft 470 kts 170°
2026-04-30 19:50 52.98210 38.74433 37244 ft 471 kts 170°
2026-04-30 19:50 52.91789 38.76471 37245 ft 471 kts 170°
2026-04-30 19:51 52.85345 38.78525 37248 ft 471 kts 170°
2026-04-30 19:51 52.78937 38.80563 37247 ft 471 kts 170°
2026-04-30 19:52 52.72482 38.82606 37254 ft 471 kts 170°
2026-04-30 19:52 52.66044 38.84625 37244 ft 471 kts 170°
2026-04-30 19:53 52.59635 38.86646 37250 ft 471 kts 170°
2026-04-30 19:53 52.53203 38.88672 37250 ft 470 kts 170°
2026-04-30 19:54 52.46774 38.90675 37254 ft 470 kts 171°
2026-04-30 19:54 52.40376 38.92933 37251 ft 471 kts 162°
2026-04-30 19:55 52.34587 38.97762 37245 ft 472 kts 147°
2026-04-30 19:55 52.29113 39.03682 37231 ft 472 kts 148°
2026-04-30 19:56 52.23606 39.09560 37237 ft 472 kts 148°
2026-04-30 19:56 52.18105 39.15425 37240 ft 472 kts 148°
2026-04-30 19:57 52.12637 39.21243 37238 ft 472 kts 148°
2026-04-30 19:57 52.07107 39.27118 37237 ft 472 kts 148°
2026-04-30 19:58 52.01637 39.32897 37235 ft 472 kts 148°
2026-04-30 19:58 51.96136 39.38703 37236 ft 472 kts 148°
2026-04-30 19:59 51.90628 39.44497 37236 ft 471 kts 148°
2026-04-30 20:00 51.82363 39.53141 37229 ft 471 kts 148°
2026-04-30 20:00 51.76860 39.58888 37230 ft 471 kts 148°
2026-04-30 20:01 51.68035 39.65510 37232 ft 467 kts 163°
2026-04-30 20:01 51.61873 39.68833 37233 ft 467 kts 163°
2026-04-30 20:02 51.52626 39.73846 37233 ft 468 kts 163°
2026-04-30 20:03 51.43372 39.78854 37236 ft 467 kts 163°
2026-04-30 20:03 51.37204 39.82167 37228 ft 467 kts 163°
2026-04-30 20:04 51.31039 39.85468 37230 ft 467 kts 163°
2026-04-30 20:05 51.21798 39.90404 37234 ft 466 kts 163°
2026-04-30 20:05 51.12562 39.95312 37236 ft 466 kts 164°
2026-04-30 20:06 51.06399 39.98569 37239 ft 466 kts 164°
2026-04-30 20:06 51.00235 40.01828 37221 ft 466 kts 164°
2026-04-30 20:07 50.94125 40.05054 37229 ft 466 kts 164°
2026-04-30 20:08 50.84897 40.09879 37236 ft 465 kts 164°
2026-04-30 20:08 50.78745 40.13091 37238 ft 465 kts 164°
2026-04-30 20:09 50.72596 40.16307 37245 ft 465 kts 164°
2026-04-30 20:09 50.63352 40.21100 37242 ft 465 kts 164°
2026-04-30 20:10 50.54168 40.25863 37242 ft 466 kts 164°
2026-04-30 20:11 50.44919 40.30623 37243 ft 466 kts 165°
2026-04-30 20:11 50.38752 40.33785 37250 ft 466 kts 165°
2026-04-30 20:12 50.29495 40.38520 37256 ft 466 kts 165°
2026-04-30 20:13 50.23339 40.41664 37247 ft 466 kts 165°
2026-04-30 20:13 50.17165 40.44809 37242 ft 465 kts 165°
2026-04-30 20:14 50.11024 40.47922 37244 ft 465 kts 165°
2026-04-30 20:14 50.04903 40.51029 37248 ft 464 kts 165°
2026-04-30 20:15 49.98761 40.54121 37246 ft 464 kts 165°
2026-04-30 20:15 49.92606 40.57206 37231 ft 463 kts 166°
2026-04-30 20:16 49.86467 40.60266 37229 ft 463 kts 166°
2026-04-30 20:16 49.80319 40.63325 37235 ft 463 kts 166°
2026-04-30 20:17 49.74182 40.66374 37238 ft 463 kts 166°
2026-04-30 20:17 49.68056 40.69414 37235 ft 464 kts 166°
2026-04-30 20:18 49.61808 40.71227 37234 ft 454 kts 183°
2026-04-30 20:18 49.55503 40.71065 37239 ft 452 kts 185°
2026-04-30 20:19 49.49235 40.70871 37229 ft 452 kts 185°
2026-04-30 20:19 49.42937 40.70691 37234 ft 452 kts 185°
2026-04-30 20:20 49.36640 40.70508 37238 ft 452 kts 185°
2026-04-30 20:20 49.30346 40.70333 37228 ft 452 kts 185°
2026-04-30 20:21 49.24050 40.70169 37224 ft 451 kts 185°
2026-04-30 20:21 49.17772 40.70002 37227 ft 451 kts 185°
2026-04-30 20:22 49.11531 40.69839 37235 ft 451 kts 185°
2026-04-30 20:22 49.05253 40.69681 37230 ft 451 kts 185°
2026-04-30 20:23 48.98976 40.69521 37218 ft 451 kts 185°
2026-04-30 20:23 48.92703 40.69341 37218 ft 449 kts 188°
2026-04-30 20:24 48.87620 40.68127 37227 ft 443 kts 195°
2026-04-30 20:24 48.81557 40.66338 37233 ft 443 kts 195°
2026-04-30 20:25 48.72470 40.63688 37232 ft 443 kts 195°
2026-04-30 20:26 48.63379 40.61047 37233 ft 443 kts 195°
2026-04-30 20:26 48.54322 40.58437 37237 ft 443 kts 195°
2026-04-30 20:27 48.42238 40.54965 37239 ft 441 kts 195°
2026-04-30 20:28 48.30170 40.51534 37239 ft 441 kts 195°
2026-04-30 20:30 48.15148 40.47294 37223 ft 440 kts 196°
2026-04-30 20:31 47.97108 40.42227 37235 ft 439 kts 196°
2026-04-30 20:32 47.82095 40.38062 37210 ft 440 kts 193°
2026-04-30 20:33 47.72824 40.38442 37223 ft 449 kts 182°
2026-04-30 20:34 47.63484 40.39452 37222 ft 448 kts 182°
2026-04-30 20:35 47.54160 40.40438 37220 ft 448 kts 182°
2026-04-30 20:35 47.44856 40.41411 37231 ft 448 kts 182°
2026-04-30 20:36 47.38623 40.42066 37222 ft 448 kts 182°
2026-04-30 20:37 47.29287 40.43076 37225 ft 448 kts 182°
2026-04-30 20:37 47.23067 40.43725 37205 ft 447 kts 183°
2026-04-30 20:38 47.16897 40.44365 37212 ft 447 kts 183°
2026-04-30 20:38 47.10693 40.44977 37207 ft 446 kts 185°
2026-04-30 20:39 47.01422 40.45196 37221 ft 443 kts 187°
2026-04-30 20:40 46.92173 40.45245 37189 ft 443 kts 186°
2026-04-30 20:40 46.86037 40.45381 37212 ft 442 kts 186°
2026-04-30 20:41 46.76804 40.45610 37224 ft 441 kts 186°
2026-04-30 20:41 46.70701 40.45748 37223 ft 440 kts 186°
2026-04-30 20:42 46.64565 40.45873 37224 ft 440 kts 186°
2026-04-30 20:43 46.55410 40.46058 37211 ft 439 kts 186°
2026-04-30 20:43 46.49306 40.46194 37222 ft 438 kts 186°
2026-04-30 20:44 46.40159 40.46385 37225 ft 437 kts 187°
2026-04-30 20:44 46.34166 40.46098 37216 ft 426 kts 197°
2026-04-30 20:45 46.28483 40.44035 37179 ft 421 kts 202°
2026-04-30 20:45 46.22829 40.41880 37217 ft 420 kts 202°
2026-04-30 20:46 46.11527 40.37616 37206 ft 420 kts 201°
2026-04-30 20:47 46.03066 40.34427 37193 ft 419 kts 202°
2026-04-30 20:48 45.94580 40.31216 37204 ft 418 kts 202°
2026-04-30 20:48 45.88961 40.29107 37178 ft 418 kts 202°
2026-04-30 20:49 45.83327 40.27018 37194 ft 418 kts 202°
2026-04-30 20:50 45.75041 40.23506 37194 ft 407 kts 212°
2026-04-30 20:50 45.69941 40.19954 37196 ft 407 kts 212°
2026-04-30 20:51 45.64888 40.16432 37179 ft 407 kts 212°
2026-04-30 20:51 45.57252 40.11131 37194 ft 407 kts 212°
2026-04-30 20:52 45.52154 40.07598 37196 ft 407 kts 212°
2026-04-30 20:53 45.44486 40.02389 37187 ft 410 kts 207°
2026-04-30 20:53 45.38799 40.00720 37176 ft 424 kts 194°
2026-04-30 20:54 45.30004 39.99272 37184 ft 424 kts 194°
2026-04-30 20:55 45.21210 39.97809 37185 ft 424 kts 194°
2026-04-30 20:55 45.15343 39.96830 37192 ft 424 kts 194°
2026-04-30 20:56 45.06560 39.95371 37167 ft 424 kts 194°
2026-04-30 20:57 44.97792 39.93914 37150 ft 424 kts 194°
2026-04-30 20:57 44.91920 39.92950 37154 ft 425 kts 194°
2026-04-30 20:58 44.83100 39.91505 37160 ft 425 kts 194°
2026-04-30 20:58 44.77215 39.90542 37164 ft 426 kts 194°
2026-04-30 20:59 44.68380 39.89093 37160 ft 426 kts 194°
2026-04-30 21:00 44.56622 39.87179 37171 ft 426 kts 194°
2026-04-30 21:01 44.47780 39.85756 37126 ft 427 kts 194°
2026-04-30 21:01 44.41884 39.84804 36557 ft 425 kts 195°
2026-04-30 21:02 44.38943 39.84406 36299 ft 428 kts 189°
2026-04-30 21:02 44.35932 39.84610 35991 ft 438 kts 181°
2026-04-30 21:02 44.32900 39.85528 35219 ft 453 kts 173°
2026-04-30 21:02 44.29858 39.86744 34404 ft 457 kts 173°
2026-04-30 21:03 44.26772 39.87983 33423 ft 462 kts 173°
2026-04-30 21:03 44.23702 39.89219 32512 ft 465 kts 173°
2026-04-30 21:03 44.20541 39.90487 31573 ft 468 kts 172°
2026-04-30 21:03 44.17437 39.91721 30614 ft 472 kts 172°
2026-04-30 21:04 44.14258 39.92975 29535 ft 477 kts 172°
2026-04-30 21:04 44.11064 39.94234 28484 ft 479 kts 171°
2026-04-30 21:04 44.04729 39.96748 27201 ft 468 kts 171°
2026-04-30 21:05 44.01614 39.97984 26534 ft 463 kts 171°
2026-04-30 21:05 43.98523 39.99205 25864 ft 459 kts 171°
2026-04-30 21:05 43.95462 40.00411 25236 ft 454 kts 171°
2026-04-30 21:05 43.92430 40.01604 24627 ft 450 kts 171°
2026-04-30 21:06 43.89432 40.02783 24022 ft 445 kts 171°
2026-04-30 21:06 43.86462 40.03948 23373 ft 441 kts 170°
2026-04-30 21:06 43.83524 40.05100 22769 ft 435 kts 170°
2026-04-30 21:06 43.80634 40.06235 22216 ft 429 kts 170°
2026-04-30 21:07 43.77784 40.07353 21684 ft 423 kts 170°
2026-04-30 21:07 43.74970 40.08455 21162 ft 417 kts 170°
2026-04-30 21:07 43.72178 40.09375 20633 ft 406 kts 178°
2026-04-30 21:07 43.69406 40.09586 20178 ft 392 kts 188°
2026-04-30 21:08 43.66748 40.09101 19743 ft 380 kts 198°
2026-04-30 21:08 43.64266 40.07989 19332 ft 372 kts 208°
2026-04-30 21:08 43.61918 40.06508 18934 ft 370 kts 209°
2026-04-30 21:08 43.59584 40.05040 18529 ft 367 kts 208°
2026-04-30 21:09 43.57262 40.03588 18108 ft 365 kts 208°
2026-04-30 21:09 43.54951 40.02149 17711 ft 363 kts 208°
2026-04-30 21:09 43.52683 40.00736 17324 ft 361 kts 208°
2026-04-30 21:09 43.50400 39.99312 16858 ft 359 kts 208°
2026-04-30 21:10 43.48135 39.97900 16448 ft 357 kts 208°
2026-04-30 21:10 43.45877 39.96494 16070 ft 355 kts 207°
2026-04-30 21:10 43.43551 39.95334 15448 ft 358 kts 202°
2026-04-30 21:10 43.41978 39.94611 14937 ft 362 kts 202°
2026-04-30 21:11 43.39577 39.93515 14203 ft 364 kts 202°
2026-04-30 21:11 43.37163 39.92419 13422 ft 367 kts 202°
2026-04-30 21:11 43.34754 39.91326 12803 ft 363 kts 201°
2026-04-30 21:11 43.32343 39.90231 12113 ft 363 kts 201°
2026-04-30 21:12 43.29940 39.89142 11321 ft 366 kts 201°
2026-04-30 21:12 43.27542 39.88056 11015 ft 356 kts 201°
2026-04-30 21:12 43.25241 39.87018 10887 ft 341 kts 201°
2026-04-30 21:12 43.23031 39.86026 10759 ft 327 kts 201°
2026-04-30 21:13 43.20907 39.85068 10634 ft 314 kts 201°
2026-04-30 21:13 43.18871 39.84145 10508 ft 302 kts 201°
2026-04-30 21:13 43.16937 39.83267 10382 ft 291 kts 201°
2026-04-30 21:13 43.15044 39.82409 10200 ft 282 kts 201°
2026-04-30 21:14 43.13190 39.81570 9858 ft 280 kts 201°
2026-04-30 21:14 43.11340 39.80731 9414 ft 280 kts 201°
2026-04-30 21:14 43.09491 39.79892 9032 ft 278 kts 200°
2026-04-30 21:14 43.07653 39.79050 8618 ft 277 kts 202°
2026-04-30 21:15 43.06043 39.77692 8227 ft 272 kts 227°
2026-04-30 21:15 43.05077 39.75510 7887 ft 269 kts 253°
2026-04-30 21:15 43.04920 39.72978 7618 ft 274 kts 275°
2026-04-30 21:15 43.05589 39.70533 7051 ft 285 kts 304°
2026-04-30 21:16 43.07036 39.68703 6696 ft 286 kts 330°
2026-04-30 21:16 43.08932 39.67923 6270 ft 287 kts 358°
2026-04-30 21:16 43.10873 39.68405 5840 ft 285 kts 26°
2026-04-30 21:16 43.12591 39.69770 5396 ft 285 kts 33°
2026-04-30 21:17 43.14263 39.71202 5044 ft 282 kts 34°
2026-04-30 21:17 43.15920 39.72630 4687 ft 280 kts 34°
2026-04-30 21:17 43.17555 39.74039 4354 ft 276 kts 35°
2026-04-30 21:17 43.19172 39.75428 4032 ft 272 kts 34°
2026-04-30 21:18 43.20765 39.76794 3707 ft 269 kts 34°
2026-04-30 21:18 43.22324 39.78130 3402 ft 266 kts 34°
2026-04-30 21:18 43.23858 39.79534 3082 ft 263 kts 38°
2026-04-30 21:18 43.25376 39.80928 2771 ft 262 kts 32°
2026-04-30 21:19 43.26964 39.82148 2480 ft 260 kts 30°
2026-04-30 21:19 43.28518 39.83290 2408 ft 247 kts 30°
2026-04-30 21:19 43.30001 39.84392 2307 ft 238 kts 30°
2026-04-30 21:19 43.31442 39.85470 2221 ft 231 kts 30°
2026-04-30 21:20 43.32799 39.86485 2125 ft 219 kts 29°
2026-04-30 21:20 43.34126 39.87478 2038 ft 212 kts 30°
2026-04-30 21:20 43.35383 39.88419 1824 ft 199 kts 29°
2026-04-30 21:20 43.36546 39.89290 1582 ft 179 kts 28°
2026-04-30 21:21 43.37574 39.90060 1343 ft 163 kts 28°
2026-04-30 21:21 43.38549 39.90791 1127 ft 156 kts 28°
2026-04-30 21:21 43.40423 39.92200 738 ft 152 kts 28°
2026-04-30 21:22 43.41342 39.92911 574 ft 151 kts 30°
2026-04-30 21:22 43.44072 39.94951 81 ft 139 kts 29°
2026-04-30 21:23 43.44755 39.95460 87 ft 84 kts 28°
2026-04-30 21:23 43.45126 39.95735 92 ft 41 kts 28°
2026-04-30 21:23 43.45292 39.95787 93 ft 4 kts 238°
2026-04-30 21:24 43.45276 39.95752 94 ft 5 kts 238°
2026-04-30 21:24 43.45255 39.95705 95 ft 6 kts 238°
2026-04-30 21:24 43.45233 39.95655 91 ft 6 kts 239°
2026-04-30 21:24 43.45217 39.95617 93 ft 3 kts 239°
2026-04-30 21:25 43.45205 39.95592 93 ft 1 kts 237°
2026-04-30 21:25 43.45195 39.95571 95 ft 6 kts 236°
2026-04-30 21:25 43.45157 39.95492 92 ft 15 kts 236°
2026-04-30 21:26 43.45041 39.95203 91 ft 15 kts 244°
2026-04-30 21:26 43.44992 39.95083 84 ft 14 kts 227°
2026-04-30 21:27 43.44876 39.94783 72 ft 14 kts 245°
2026-04-30 21:27 43.44832 39.94656 67 ft 15 kts 245°
2026-04-30 21:27 43.44785 39.94515 72 ft 17 kts 245°
2026-04-30 21:28 43.44760 39.94424 67 ft 4 kts 289°
2026-04-30 21:28 43.44779 39.94397 70 ft 4 kts 326°
2026-04-30 21:28 43.44805 39.94379 69 ft 2 kts 334°
2026-04-30 21:29 43.44815 39.94372 67 ft 0 kts 334°